User: anonymous   Login
Location: Apalco
(33.3585°N, 93.4602°W)
Time: 23:01:00
(UTC+00:00)
Language:

Envisat - Orbit

View from above orbital plane
View from above orbital plane
View from above satellite
View from above satellite

Ground track
Ground track

The orbit data is extracted from the following two-line orbital elements,

1 27386U 02009A   21293.71236944  .00000058  00000-0  32763-4 0  9998
2 27386  98.1600 281.4356 0001223  90.4504  82.7764 14.38048465 29076
Epoch (UTC): 20 October 2021 17:05:48
Eccentricity: 0.0001223
inclination: 98.1600°
perigee height: 764 km
apogee height: 766 km
right ascension of ascending node: 281.4356°
argument of perigee: 90.4504°
revolutions per day: 14.38048465
mean anomaly at epoch: 82.7764°
orbit number at epoch: 2907

The dashed part of the orbit path shows where the satellite is in the earth's shadow,  

DLR